When you browse on this site, cookies collect data to enhance your experience and personalize the content and advertising you see.
Visit our Privacy Policy to learn more. By continuing to use the site, you agree to this use of cookies and data.
  • en France
  • Liste des pays
  • À 7 jours
  • Température de l'eau
  • Carte satellitaire
  • Carte météo
  • Widgets météo
  • user-avatar
    Se connecter

    Météo par heure à Wuyu

    Ce jour, 19 Juillet, Vendredi

    Heure Température Précipitation Vent Pression Humidité
    00:00 +29°C° 0 mm 2 m/s 748 mmHg 86%
    01:00 +29°C° 0 mm 2 m/s 747 mmHg 86%
    02:00 +29°C° 0 mm 1 m/s 747 mmHg 88%
    03:00 +29°C° 0 mm 2 m/s 747 mmHg 87%
    04:00 +29°C° 0 mm 2 m/s 747 mmHg 87%
    05:00 +29°C° 0 mm 2 m/s 747 mmHg 87%
    06:00 +29°C° 0 mm 3 m/s 748 mmHg 85%
    07:00 +30°C° 0 mm 3 m/s 748 mmHg 83%
    08:00 +31°C° 0 mm 2 m/s 748 mmHg 83%
    09:00 +31°C° 0.4 mm 3 m/s 748 mmHg 79%
    10:00 +33°C° 0.4 mm 3 m/s 749 mmHg 76%
    11:00 +34°C° 0.4 mm 4 m/s 749 mmHg 73%
    12:00 +35°C° 0 mm 3 m/s 748 mmHg 69%
    13:00 +36°C° 0 mm 3 m/s 748 mmHg 65%
    14:00 +37°C° 0 mm 3 m/s 748 mmHg 61%
    15:00 +36°C° 0.1 mm 4 m/s 748 mmHg 65%
    16:00 +35°C° 0.1 mm 5 m/s 748 mmHg 69%
    17:00 +35°C° 0.1 mm 5 m/s 748 mmHg 73%
    18:00 +34°C° 0.2 mm 5 m/s 748 mmHg 76%
    19:00 +33°C° 0.2 mm 5 m/s 749 mmHg 79%
    20:00 +32°C° 0.2 mm 5 m/s 749 mmHg 82%
    21:00 +32°C° 0 mm 5 m/s 750 mmHg 83%
    22:00 +32°C° 0 mm 5 m/s 750 mmHg 83%
    23:00 +30°C° 0 mm 5 m/s 750 mmHg 84%

    Demain, 20 Juillet, Samedi

    Heure Température Précipitation Vent Pression Humidité
    00:00 +30°C° 0 mm 5 m/s 750 mmHg 85%
    01:00 +30°C° 0 mm 5 m/s 750 mmHg 86%
    02:00 +30°C° 0 mm 5 m/s 750 mmHg 87%
    03:00 +30°C° 0.1 mm 5 m/s 750 mmHg 87%
    04:00 +30°C° 0.1 mm 5 m/s 750 mmHg 88%
    05:00 +29°C° 0.1 mm 5 m/s 750 mmHg 88%
    06:00 +30°C° 0 mm 5 m/s 750 mmHg 86%
    07:00 +32°C° 0 mm 5 m/s 751 mmHg 84%
    08:00 +32°C° 0 mm 5 m/s 751 mmHg 81%
    09:00 +33°C° 0.3 mm 5 m/s 751 mmHg 78%
    10:00 +34°C° 0.3 mm 6 m/s 751 mmHg 74%
    11:00 +35°C° 0.3 mm 7 m/s 751 mmHg 71%
    12:00 +35°C° 0.5 mm 8 m/s 751 mmHg 72%
    13:00 +34°C° 0.5 mm 9 m/s 751 mmHg 73%
    14:00 +34°C° 0.5 mm 10 m/s 751 mmHg 74%
    15:00 +33°C° 0.5 mm 10 m/s 751 mmHg 77%
    16:00 +33°C° 0.5 mm 10 m/s 751 mmHg 80%
    17:00 +32°C° 0.5 mm 10 m/s 750 mmHg 83%
    18:00 +31°C° 0.7 mm 9 m/s 751 mmHg 85%
    19:00 +30°C° 0.7 mm 7 m/s 751 mmHg 87%
    20:00 +29°C° 0.7 mm 6 m/s 752 mmHg 88%
    21:00 +29°C° 0 mm 5 m/s 752 mmHg 88%
    22:00 +29°C° 0 mm 5 m/s 752 mmHg 87%
    23:00 +29°C° 0 mm 4 m/s 752 mmHg 87%

    Après-demain, 21 Juillet, Dimanche

    Heure Température Précipitation Vent Pression Humidité
    00:00 +29°C° 0 mm 4 m/s 752 mmHg 87%
    01:00 +29°C° 0 mm 4 m/s 752 mmHg 87%
    02:00 +28°C° 0 mm 4 m/s 752 mmHg 88%
    03:00 +28°C° 0.1 mm 4 m/s 752 mmHg 88%
    04:00 +28°C° 0.1 mm 4 m/s 752 mmHg 88%
    05:00 +28°C° 0.1 mm 4 m/s 752 mmHg 88%
    06:00 +29°C° 0.3 mm 4 m/s 752 mmHg 85%
    07:00 +29°C° 0.3 mm 4 m/s 753 mmHg 83%
    08:00 +30°C° 0.3 mm 4 m/s 753 mmHg 80%
    09:00 +32°C° 0 mm 5 m/s 753 mmHg 78%
    10:00 +32°C° 0 mm 6 m/s 753 mmHg 76%
    11:00 +33°C° 0 mm 6 m/s 753 mmHg 74%
    12:00 +34°C° 0 mm 7 m/s 752 mmHg 72%
    13:00 +34°C° 0 mm 7 m/s 752 mmHg 70%
    14:00 +35°C° 0 mm 7 m/s 751 mmHg 68%
    15:00 +34°C° 0.3 mm 7 m/s 751 mmHg 71%
    16:00 +34°C° 0.3 mm 7 m/s 751 mmHg 74%
    17:00 +33°C° 0.3 mm 7 m/s 750 mmHg 77%
    18:00 +32°C° 0.6 mm 7 m/s 751 mmHg 80%
    19:00 +30°C° 0.6 mm 6 m/s 751 mmHg 83%
    20:00 +30°C° 0.6 mm 6 m/s 752 mmHg 86%
    21:00 +29°C° 0.1 mm 6 m/s 752 mmHg 87%
    22:00 +29°C° 0.1 mm 6 m/s 752 mmHg 88%
    23:00 +29°C° 0.1 mm 6 m/s 753 mmHg 89%

    22 Juillet, Lundi

    Heure Température Précipitation Vent Pression Humidité
    00:00 +29°C° 0 mm 5 m/s 752 mmHg 90%
    01:00 +29°C° 0 mm 5 m/s 752 mmHg 90%
    02:00 +29°C° 0 mm 5 m/s 752 mmHg 91%
    03:00 +29°C° 0.9 mm 5 m/s 752 mmHg 92%
    04:00 +29°C° 0.9 mm 5 m/s 752 mmHg 92%
    05:00 +29°C° 0.9 mm 5 m/s 752 mmHg 92%
    06:00 +29°C° 0.6 mm 5 m/s 752 mmHg 89%
    07:00 +30°C° 0.6 mm 5 m/s 752 mmHg 85%
    08:00 +32°C° 0.6 mm 6 m/s 753 mmHg 82%
    09:00 +32°C° 0.3 mm 6 m/s 753 mmHg 79%
    10:00 +33°C° 0.3 mm 6 m/s 753 mmHg 75%
    11:00 +34°C° 0.3 mm 6 m/s 752 mmHg 72%
    12:00 +34°C° 0 mm 6 m/s 752 mmHg 72%
    13:00 +34°C° 0 mm 7 m/s 751 mmHg 73%
    14:00 +34°C° 0 mm 7 m/s 751 mmHg 73%
    15:00 +33°C° 0 mm 7 m/s 751 mmHg 75%
    16:00 +33°C° 0 mm 7 m/s 750 mmHg 76%
    17:00 +32°C° 0 mm 8 m/s 750 mmHg 78%
    18:00 +32°C° 0 mm 7 m/s 751 mmHg 80%
    19:00 +30°C° 0 mm 7 m/s 751 mmHg 82%
    20:00 +30°C° 0 mm 7 m/s 752 mmHg 83%
    21:00 +29°C° 0 mm 6 m/s 752 mmHg 84%
    22:00 +29°C° 0 mm 6 m/s 752 mmHg 85%
    23:00 +29°C° 0 mm 5 m/s 753 mmHg 86%

    23 Juillet, Mardi

    Heure Température Précipitation Vent Pression Humidité
    00:00 +29°C° 0 mm 5 m/s 752 mmHg 87%
    01:00 +29°C° 0 mm 4 m/s 752 mmHg 88%
    02:00 +29°C° 0 mm 4 m/s 752 mmHg 89%
    03:00 +28°C° 0 mm 4 m/s 752 mmHg 89%
    04:00 +28°C° 0 mm 3 m/s 752 mmHg 89%
    05:00 +28°C° 0 mm 3 m/s 751 mmHg 89%
    06:00 +29°C° 0 mm 3 m/s 752 mmHg 86%
    07:00 +29°C° 0 mm 3 m/s 752 mmHg 83%
    08:00 +30°C° 0 mm 3 m/s 752 mmHg 80%
    09:00 +31°C° 0 mm 3 m/s 752 mmHg 77%
    10:00 +32°C° 0 mm 4 m/s 752 mmHg 74%
    11:00 +33°C° 0 mm 5 m/s 752 mmHg 71%
    12:00 +33°C° 0 mm 5 m/s 752 mmHg 72%
    13:00 +33°C° 0 mm 5 m/s 752 mmHg 72%
    14:00 +33°C° 0 mm 5 m/s 751 mmHg 73%
    15:00 +33°C° 0.1 mm 5 m/s 751 mmHg 74%
    16:00 +32°C° 0.1 mm 6 m/s 751 mmHg 76%
    17:00 +32°C° 0.1 mm 6 m/s 751 mmHg 77%
    18:00 +30°C° 0 mm 6 m/s 751 mmHg 80%
    19:00 +30°C° 0 mm 6 m/s 752 mmHg 82%
    20:00 +29°C° 0 mm 5 m/s 752 mmHg 84%
    21:00 +29°C° 0.3 mm 5 m/s 752 mmHg 85%
    22:00 +29°C° 0.3 mm 5 m/s 753 mmHg 87%
    23:00 +29°C° 0.3 mm 4 m/s 753 mmHg 88%

    24 Juillet, Mercredi

    Heure Température Précipitation Vent Pression Humidité
    00:00 +29°C° 0.1 mm 4 m/s 753 mmHg 88%
    01:00 +29°C° 0.1 mm 4 m/s 752 mmHg 88%
    02:00 +29°C° 0.1 mm 4 m/s 752 mmHg 88%
    03:00 +28°C° 0 mm 4 m/s 752 mmHg 88%
    04:00 +28°C° 0 mm 4 m/s 752 mmHg 89%
    05:00 +28°C° 0 mm 4 m/s 752 mmHg 89%
    06:00 +29°C° 0 mm 4 m/s 752 mmHg 86%
    07:00 +29°C° 0 mm 4 m/s 752 mmHg 84%
    08:00 +30°C° 0 mm 4 m/s 753 mmHg 81%
    09:00 +32°C° 0 mm 4 m/s 753 mmHg 78%
    10:00 +33°C° 0 mm 5 m/s 753 mmHg 74%
    11:00 +33°C° 0 mm 5 m/s 753 mmHg 71%
    12:00 +34°C° 0.1 mm 6 m/s 753 mmHg 71%
    13:00 +34°C° 0.1 mm 6 m/s 752 mmHg 70%
    14:00 +34°C° 0.1 mm 7 m/s 752 mmHg 70%
    15:00 +33°C° 0 mm 7 m/s 752 mmHg 72%
    16:00 +33°C° 0 mm 7 m/s 752 mmHg 75%
    17:00 +33°C° 0 mm 7 m/s 752 mmHg 77%
    18:00 +32°C° 0 mm 7 m/s 752 mmHg 79%
    19:00 +30°C° 0 mm 6 m/s 753 mmHg 82%
    20:00 +30°C° 0 mm 6 m/s 753 mmHg 85%
    21:00 +30°C° 0 mm 6 m/s 754 mmHg 86%
    22:00 +29°C° 0 mm 5 m/s 754 mmHg 87%
    23:00 +29°C° 0 mm 5 m/s 755 mmHg 88%
    Voir plus